Regional Weather Roundup
Issued by NWS

Home | Current Version | Previous Version | Text Only | Print | Product List | Glossary Off
Versions: 1 2 3 4 5 6 7 8 9 10 11 12 13 14 15 16 17 18 19 20 21 22 23 24 25 26 27 28 29 30 31 32 33 34 35 36 37 38 39 40 41 42 43 44 45 46 47 48 49 50

000
ASUS45 KABQ 210101
RWRNM
NEW MEXICO REGIONAL WEATHER ROUNDUP
NATIONAL WEATHER SERVICE ALBUQUERQUE NM
600 PM MST MON NOV 20 2017

NOTE: "FAIR" MEANS FEW OR NO CLOUDS BELOW 12,000 FEET AGL WITH NO
       SIGNIFICANT WEATHER OR OBSTRUCTIONS TO VISION.

      THIS PRODUCT IS RELEASED AS TWO VERSIONS.  ONE VERSION NEAR
      THE TOP OF THE HOUR CONTAINING PRELIMINARY DATA FROM ALBUQUERQUE
      AND OTHER STATIONS.  A FINAL VERSION WITH ADDITIONAL DATA IS
      ISSUED ABOUT 10 MINUTES AFTER THE HOUR.

NMZ501-503-504-510>518-210200-
NORTHWEST PLATEAU/NORTHCENTRAL MOUNTAINS

CITY           SKY/WX    TMP DP  RH WIND       PRES   REMARKS
FARMINGTON     FAIR      40  11  30 W8        30.12R WCI  34
LOS ALAMOS     FAIR      46   0  14 W7        30.11R
SANTA FE       FAIR      44   4  19 W5        30.07S
ANGEL FIRE     FAIR      42  -6  13 W12G20    30.11R

$$
NMZ402-403-502-505>509-210200-
WESTCENTRAL MOUNTAINS/SOUTHWEST MOUNTAINS

CITY           SKY/WX    TMP DP  RH WIND       PRES   REMARKS
GALLUP         FAIR      45   4  18 CALM      30.16R
GRANTS         FAIR      48  -3  12 W6        30.15S
SILVER CITY    FAIR      54  15  21 NW9       30.10S

$$
NMZ407-409-411-412-210200-
SOUTHERN DESERTS

CITY           SKY/WX    TMP DP  RH WIND       PRES   REMARKS
DEMING         FAIR      61  18  18 W15       30.05S
LAS CRUCES     FAIR      55  20  25 SE7       30.06S
HOLLOMAN AFB   FAIR      55  12  18 CALM      30.05F
ALAMOGORDO     FAIR      50  10  20 E6        30.05S
T OR C         FAIR      57  15  19 NE5       30.05R

$$
NMZ519>523-210200-
CENTRAL VALLEYS/CENTRAL HIGHLANDS

CITY           SKY/WX    TMP DP  RH WIND       PRES   REMARKS
ALBUQUERQUE    MOCLDY    53  -1  11 W3        30.08R
DOUBLE EAGLE   CLEAR     39   3  22 W6        30.10R WCI  35
MORIARTY ARPT  FAIR      55  -8   7 W6        30.08S
CLINES CORNERS FAIR      48 -10   8 W25G33    30.05F
BELEN          FAIR      51   5  15 CALM      30.08S
SOCORRO        FAIR      47   6  19 SW6       30.06S

$$
NMZ524>526-539-540-210200-
SOUTHCENTRAL MOUNTAINS

CITY           SKY/WX    TMP DP  RH WIND       PRES   REMARKS
RUIDOSO        FAIR      52  -8   8 NW12      30.08F

$$
NMZ527>531-210200-
NORTHEAST HIGHLANDS/NORTHEAST PLAINS

CITY           SKY/WX    TMP DP  RH WIND       PRES   REMARKS
LAS VEGAS      FAIR      52  -7   8 CALM      29.97S
RATON          FAIR      46  11  24 N3        29.91S
CLAYTON        FAIR      48   8  19 W10       29.84R

$$
NMZ532>537-210200-
EASTCENTRAL PLAINS

CITY           SKY/WX    TMP DP  RH WIND       PRES   REMARKS
SANTA ROSA     FAIR      59   4  11 W17G29    29.90R
TUCUMCARI      FAIR      59   2  10 W8        29.81R
CANNON AFB     FAIR      59  -2   8 W10       29.87S
CLOVIS AIRPORT FAIR      56   4  12 W9        29.87R

$$
NMZ028-029-538-210200-
SOUTHEAST PLAINS

CITY           SKY/WX    TMP DP  RH WIND       PRES   REMARKS
ROSWELL        FAIR      53  20  27 S8        29.91F
ARTESIA        FAIR      57  18  21 SW14      29.93S
CARLSBAD       FAIR      59  16  18 W6        29.93R
HOBBS          CLEAR     54  23  30 SW8       29.93R


$$



USA.gov is the U.S. government's official web portal to all federal, state and local government web resources and services.